KN4URY Weather Reports


Display with metric or nautical units.
time (UTC)temp
F
wind
direction
speed
MPH
gust
MPH
rain 1hr
in
rain 24hr
in
rain mn
in
humidity
%
barometer
mb
20260904060818 80 341 0.0 2.0 0.00 0.00 0.00 80 1014.3
20260904060317 80 341 1.0 2.0 0.00 0.00 0.00 80 1014.5
20260904055816 81 341 1.0 2.0 0.00 0.00 0.00 80 1014.7
20260904055314 81 341 1.0 3.0 0.00 0.00 0.00 79 1014.7
20260904054841 81 341 1.0 3.0 0.00 0.00 0.00 79 1014.7
20260904054346 81 341 1.0 3.0 0.00 0.00 0.00 79 1014.7
20260904053824 81 341 1.0 3.0 0.00 0.00 0.00 79 1014.9
20260904053325 81 341 1.0 3.0 0.00 0.00 0.00 79 1015.1
20260904052852 81 341 1.0 3.0 0.00 0.00 0.00 79 1015.2
20260904052331 81 341 1.0 4.0 0.00 0.00 0.00 79 1015.3
20260904051811 81 341 1.0 5.0 0.00 0.00 0.00 78 1015.3
20260904051334 81 341 1.0 5.0 0.00 0.00 0.00 78 1015.4
20260904050833 81 341 2.0 4.0 0.00 0.00 0.00 78 1015.4
20260904050332 81 341 1.0 3.0 0.00 0.00 0.00 78 1015.5
20260904045833 81 341 1.0 3.0 0.00 0.00 0.00 78 1015.4
20260904045331 81 341 1.0 3.0 0.00 0.00 0.00 78 1015.6
20260904044831 81 341 1.0 4.0 0.00 0.00 0.00 79 1015.6
20260904044330 81 341 1.0 4.0 0.00 0.00 0.00 79 1015.6
20260904043830 81 341 0.0 2.0 0.00 0.00 0.00 79 1015.6
20260904043331 81 341 1.0 2.0 0.00 0.00 0.00 79 1015.7
20260904042830 81 341 0.0 2.0 0.00 0.00 0.00 79 1015.8
20260904042329 81 341 1.0 2.0 0.00 0.00 0.00 79 1015.7
20260904041820 81 341 0.0 1.0 0.00 0.00 0.00 79 1015.7
20260904041316 81 341 0.0 1.0 0.00 0.00 0.00 78 1015.7
20260904040815 81 341 0.0 1.0 0.00 0.00 0.00 78 1015.8
20260904040313 82 341 0.0 1.0 0.00 0.00 0.00 77 1015.7
20260904035834 82 341 0.0 1.0 0.00 0.00 0.00 77 1015.6
20260904035334 82 341 0.0 2.0 0.00 0.00 0.00 77 1015.8
20260904034834 82 341 0.0 2.0 0.00 0.00 0.00 77 1015.7
20260904034312 82 341 0.0 1.0 0.00 0.00 0.00 77 1015.7
20260904033812 82 341 0.0 1.0 0.00 0.00 0.00 78 1015.5
20260904033338 82 341 0.0 1.0 0.00 0.00 0.00 78 1015.6
20260904032813 82 341 0.0 4.0 0.00 0.00 0.00 78 1015.7
20260904032314 82 341 0.0 1.0 0.00 0.00 0.00 78 1015.5
20260904031837 82 341 0.0 3.0 0.00 0.00 0.00 78 1015.3
20260904031336 82 341 1.0 3.0 0.00 0.00 0.00 78 1015.4
20260904030835 81 341 0.0 2.0 0.00 0.00 0.00 79 1015.4
20260904030334 81 341 0.0 2.0 0.00 0.00 0.00 80 1015.2
20260904025840 81 341 0.0 1.0 0.00 0.00 0.00 81 1015.2
20260904025317 81 341 0.0 1.0 0.00 0.00 0.00 81 1015.0
20260904024819 81 341 0.0 2.0 0.00 0.00 0.00 81 1015.1
20260904024318 80 341 0.0 2.0 0.00 0.00 0.00 82 1015.2
20260904023817 80 341 0.0 0.0 0.00 0.00 0.00 83 1015.1
20260904023321 80 341 0.0 0.0 0.00 0.00 0.00 82 1015.1
20260904022818 80 341 0.0 1.0 0.00 0.00 0.00 85 1015.3
20260904022343 80 341 0.0 1.0 0.00 0.00 0.00 85 1015.3
20260904021848 80 341 0.0 0.0 0.00 0.00 0.00 85 1015.3
20260904021326 80 341 0.0 1.0 0.00 0.00 0.00 86 1015.3
20260904020852 80 341 0.0 1.0 0.00 0.00 0.00 86 1015.2
20260904020332 80 341 0.0 1.0 0.00 0.00 0.00 87 1015.2
20260904015831 80 341 0.0 1.0 0.00 0.00 0.00 87 1015.3
20260904015331 80 341 0.0 0.0 0.00 0.00 0.00 86 1015.3
20260904014830 81 341 0.0 0.0 0.00 0.00 0.00 85 1015.3
20260904014330 81 341 0.0 0.0 0.00 0.00 0.00 84 1015.3
20260904013827 81 341 0.0 0.0 0.00 0.00 0.00 84 1015.4
20260904013326 81 341 0.0 0.0 0.00 0.00 0.00 84 1015.3
20260904012831 81 341 0.0 0.0 0.00 0.00 0.00 84 1015.3
20260904012330 82 341 0.0 0.0 0.00 0.00 0.00 83 1015.3
20260904011830 82 341 0.0 0.0 0.00 0.00 0.00 83 1015.2
20260904011331 82 341 0.0 0.0 0.00 0.00 0.00 83 1015.2
20260904010830 82 341 0.0 0.0 0.00 0.00 0.00 82 1015.2
20260904010330 82 341 0.0 0.0 0.00 0.00 0.00 81 1015.2
20260904005829 83 341 0.0 0.0 0.00 0.00 0.00 81 1015.3
20260904005328 83 341 0.0 0.0 0.00 0.00 0.00 79 1015.3
20260904004828 83 341 0.0 1.0 0.00 0.00 0.00 79 1015.3
20260904004327 84 341 0.0 1.0 0.00 0.00 0.00 77 1015.3
20260904003822 84 341 0.0 0.0 0.00 0.00 0.00 78 1015.2
20260904003323 84 341 0.0 0.0 0.00 0.00 0.00 76 1015.4
20260904002823 85 341 0.0 0.0 0.00 0.00 0.00 76 1015.3
20260904002349 86 341 0.0 0.0 0.00 0.00 0.00 74 1015.1
20260904001828 86 341 0.0 0.0 0.00 0.00 0.00 74 1014.8
20260904001329 87 341 0.0 0.0 0.00 0.00 0.00 71 1014.8
20260904000828 87 341 0.0 0.0 0.00 0.00 0.00 71 1014.6
20260904000329 88 341 0.0 0.0 0.00 0.00 0.00 70 1014.6
20260903235824 89 341 0.0 0.0 0.00 0.00 0.00 68 1014.6
20260903235325 90 341 0.0 0.0 0.00 0.00 0.00 66 1014.6
20260903234826 91 341 0.0 0.0 0.00 0.00 0.00 65 1014.6
20260903234325 92 341 0.0 0.0 0.00 0.00 0.00 64 1014.5
20260903233820 94 341 0.0 0.0 0.00 0.00 0.00 62 1014.4
20260903233320 96 341 0.0 0.0 0.00 0.00 0.00 60 1014.4
20260903232846 97 341 0.0 0.0 0.00 0.00 0.00 58 1014.3
20260903232329 99 341 0.0 0.0 0.00 0.00 0.00 55 1014.2
20260903231829 101 341 0.0 0.0 0.00 0.00 0.00 53 1014.2
20260903231328 103 341 0.0 0.0 0.00 0.00 0.00 51 1014.1
20260903230828 103 341 0.0 0.0 0.00 0.00 0.00 50 1014.1
20260903230328 104 341 0.0 0.0 0.00 0.00 0.00 50 1014.0
20260903225855 104 341 0.0 0.0 0.00 0.00 0.00 50 1013.9
20260903225335 104 341 0.0 0.0 0.00 0.00 0.00 49 1014.0
20260903224831 104 341 0.0 1.0 0.00 0.00 0.00 50 1014.0
20260903224331 104 341 0.0 1.0 0.00 0.00 0.00 49 1014.0
20260903223830 104 341 0.0 0.0 0.00 0.00 0.00 50 1013.9
20260903223329 104 341 0.0 1.0 0.00 0.00 0.00 50 1013.9
20260903222828 104 341 0.0 1.0 0.00 0.00 0.00 49 1013.9
20260903222354 104 341 0.0 1.0 0.00 0.00 0.00 50 1014.1
20260903221832 104 341 0.0 1.0 0.00 0.00 0.00 48 1014.1
20260903221333 104 341 0.0 2.0 0.00 0.00 0.00 47 1014.0
20260903220833 103 341 0.0 2.0 0.00 0.00 0.00 50 1014.1
20260903220331 104 341 0.0 1.0 0.00 0.00 0.00 46 1014.2
20260903215829 104 341 0.0 1.0 0.00 0.00 0.00 49 1014.2
20260903215329 103 341 0.0 2.0 0.00 0.00 0.00 46 1014.1
20260903214824 104 341 0.0 1.0 0.00 0.00 0.00 46 1014.1
20260903214351 104 341 0.0 2.0 0.00 0.00 0.00 47 1014.2
20260903213829 103 341 0.0 2.0 0.00 0.00 0.00 48 1014.3
20260903213329 103 341 0.0 4.0 0.00 0.00 0.00 49 1014.2
20260903212829 102 341 1.0 4.0 0.00 0.00 0.00 48 1014.2
20260903212329 103 341 0.0 4.0 0.00 0.00 0.00 47 1014.2
20260903211828 103 341 0.0 2.0 0.00 0.00 0.00 49 1014.3
20260903211330 103 341 1.0 3.0 0.00 0.00 0.00 46 1014.3
20260903210830 103 341 1.0 3.0 0.00 0.00 0.00 46 1014.3
20260903210329 104 341 0.0 1.0 0.00 0.00 0.00 46 1014.4
20260903205829 104 341 0.0 1.0 0.00 0.00 0.00 46 1014.5
20260903205328 104 341 0.0 1.0 0.00 0.00 0.00 48 1014.6
20260903204849 104 341 0.0 1.0 0.00 0.00 0.00 47 1014.6
20260903204326 103 341 0.0 2.0 0.00 0.00 0.00 47 1014.5
20260903203825 103 341 1.0 2.0 0.00 0.00 0.00 46 1014.7
20260903203325 102 341 0.0 2.0 0.00 0.00 0.00 48 1014.8
20260903202821 102 341 0.0 4.0 0.00 0.00 0.00 48 1014.8
20260903202321 102 341 2.0 4.0 0.00 0.00 0.00 46 1014.8
20260903201820 102 341 1.0 4.0 0.00 0.00 0.00 45 1014.7
20260903201320 101 341 0.0 5.0 0.00 0.00 0.00 43 1014.9
20260903200847 102 341 1.0 4.0 0.00 0.00 0.00 44 1014.9
20260903200323 101 341 1.0 4.0 0.00 0.00 0.00 45 1015.0
20260903195820 100 341 1.0 4.0 0.00 0.00 0.00 48 1015.2
20260903195316 100 341 1.0 5.0 0.00 0.00 0.00 48 1015.2
20260903194816 100 341 2.0 4.0 0.00 0.00 0.00 48 1015.3
20260903194342 101 341 1.0 3.0 0.00 0.00 0.00 49 1015.2
20260903193848 101 341 2.0 3.0 0.00 0.00 0.00 45 1015.4
20260903193325 103 341 1.0 2.0 0.00 0.00 0.00 47 1015.4
20260903192831 103 341 0.0 2.0 0.00 0.00 0.00 47 1015.6
20260903192357 101 341 0.0 7.0 0.00 0.00 0.00 50 1015.6
20260903191813 101 341 1.0 7.0 0.00 0.00 0.00 46 1015.7
20260903191334 103 341 0.0 2.0 0.00 0.00 0.00 43 1015.7
20260903190833 103 341 1.0 2.0 0.00 0.00 0.00 43 1015.8
20260903190333 103 341 0.0 2.0 0.00 0.00 0.00 44 1015.9
20260903185833 102 341 1.0 2.0 0.00 0.00 0.00 44 1016.0
20260903185356 100 341 0.0 5.0 0.00 0.00 0.00 47 1016.0
20260903184835 99 341 2.0 5.0 0.00 0.00 0.00 47 1016.0
20260903184338 100 341 2.0 5.0 0.00 0.00 0.00 48 1016.1
20260903183836 100 341 0.0 4.0 0.00 0.00 0.00 49 1016.2
20260903183336 99 341 2.0 5.0 0.00 0.00 0.00 49 1016.3
20260903182831 99 341 2.0 5.0 0.00 0.00 0.00 48 1016.2
20260903182330 99 341 2.0 6.0 0.00 0.00 0.00 50 1016.2
20260903181828 98 341 1.0 6.0 0.00 0.00 0.00 49 1016.3
20260903181355 98 341 1.0 4.0 0.00 0.00 0.00 53 1016.3
20260903180834 98 341 2.0 4.0 0.00 0.00 0.00 51 1016.4
20260903180334 98 341 0.0 3.0 0.00 0.00 0.00 54 1016.5
20260903175834 96 341 1.0 3.0 0.00 0.00 0.00 55 1016.5
20260903175334 96 341 1.0 4.0 0.00 0.00 0.00 53 1016.5
20260903174835 97 341 2.0 4.0 0.00 0.00 0.00 52 1016.6
20260903174335 99 341 0.0 1.0 0.00 0.00 0.00 51 1016.6
20260903173813 99 341 1.0 2.0 0.00 0.00 0.00 52 1016.5
20260903173314 98 341 1.0 2.0 0.00 0.00 0.00 51 1016.5
20260903172837 99 341 1.0 2.0 0.00 0.00 0.00 50 1016.6
20260903172336 99 341 0.0 2.0 0.00 0.00 0.00 50 1016.6
20260903171836 99 341 0.0 2.0 0.00 0.00 0.00 51 1016.7
20260903171336 99 341 1.0 4.0 0.00 0.00 0.00 50 1016.8
20260903170815 99 341 1.0 2.0 0.00 0.00 0.00 50 1016.7
20260903170312 98 341 0.0 3.0 0.00 0.00 0.00 54 1016.8
20260903165838 97 341 1.0 3.0 0.00 0.00 0.00 54 1016.9
20260903165312 98 341 1.0 3.0 0.00 0.00 0.00 53 1016.9
20260903164838 98 341 1.0 5.0 0.00 0.00 0.00 54 1016.9
20260903164336 97 341 2.0 5.0 0.00 0.00 0.00 53 1017.1
20260903163812 97 341 0.0 3.0 0.00 0.00 0.00 54 1017.0
20260903163337 97 341 1.0 3.0 0.00 0.00 0.00 56 1017.0
20260903162835 97 341 0.0 1.0 0.00 0.00 0.00 59 1017.2
20260903162313 96 341 0.0 3.0 0.00 0.00 0.00 58 1017.1
20260903161812 95 341 0.0 3.0 0.00 0.00 0.00 60 1017.2
20260903161336 95 341 1.0 3.0 0.00 0.00 0.00 59 1017.3
20260903160814 95 341 2.0 4.0 0.00 0.00 0.00 59 1017.4
20260903160313 95 341 1.0 4.0 0.00 0.00 0.00 59 1017.4
20260903155839 96 341 1.0 2.0 0.00 0.00 0.00 60 1017.5
20260903155313 96 341 0.0 2.0 0.00 0.00 0.00 58 1017.5
20260903154812 95 341 1.0 2.0 0.00 0.00 0.00 58 1017.5
20260903154312 95 341 0.0 2.0 0.00 0.00 0.00 61 1017.5
20260903153812 94 341 1.0 3.0 0.00 0.00 0.00 62 1017.6
20260903135840 83 341 1.0 3.0 0.00 0.00 0.00 80 1017.5
20260903135318 82 341 1.0 3.0 0.00 0.00 0.00 82 1017.5
20260903134815 82 341 0.0 3.0 0.00 0.00 0.00 81 1017.5
20260903134313 81 341 1.0 3.0 0.00 0.00 0.00 82 1017.4
20260903133812 81 341 0.0 3.0 0.00 0.00 0.00 82 1017.4
20260903133312 81 341 1.0 4.0 0.00 0.00 0.00 83 1017.4
20260903132813 80 341 1.0 4.0 0.00 0.00 0.00 83 1017.5
20260903132313 80 341 1.0 3.0 0.00 0.00 0.00 84 1017.5
20260903131838 80 341 1.0 3.0 0.00 0.00 0.00 83 1017.5
20260903131333 79 341 1.0 3.0 0.00 0.00 0.00 83 1017.5
20260903130830 79 341 1.0 3.0 0.00 0.00 0.00 84 1017.6
20260903130336 79 341 0.0 4.0 0.00 0.00 0.00 85 1017.6
20260903125837 79 341 1.0 3.0 0.00 0.00 0.00 86 1017.7
20260903125314 78 341 1.0 3.0 0.00 0.00 0.00 87 1017.7
20260903124816 78 341 1.0 3.0 0.00 0.00 0.00 87 1017.7
20260903124316 77 341 0.0 0.0 0.00 0.00 0.00 89 1017.7
20260903123815 77 341 0.0 0.0 0.00 0.00 0.00 90 1017.6
20260903123315 76 341 0.0 0.0 0.00 0.00 0.00 90 1017.7
20260903122814 76 341 0.0 0.0 0.00 0.00 0.00 91 1017.6
20260903122313 75 341 0.0 0.0 0.00 0.00 0.00 92 1017.6
20260903121812 74 341 0.0 0.0 0.00 0.00 0.00 93 1017.6
20260903121334 74 341 0.0 0.0 0.00 0.00 0.00 94 1017.6
20260903120835 73 341 0.0 0.0 0.00 0.00 0.00 95 1017.5
20260903120334 73 341 0.0 0.0 0.00 0.00 0.00 96 1017.6
20260903115836 72 341 0.0 0.0 0.00 0.00 0.00 97 1017.6
20260903115315 72 341 0.0 0.0 0.00 0.00 0.00 97 1017.5
20260903114842 71 341 0.0 0.0 0.00 0.00 0.00 98 1017.6
20260903114323 71 341 0.0 0.0 0.00 0.00 0.00 98 1017.6
20260903113823 71 341 0.0 0.0 0.00 0.00 0.00 98 1017.5
20260903113324 70 341 0.0 0.0 0.00 0.00 0.00 98 1017.5
20260903112826 70 341 0.0 0.0 0.00 0.00 0.00 97 1017.4
20260903112328 70 341 0.0 0.0 0.00 0.00 0.00 97 1017.5
20260903111824 70 341 0.0 0.0 0.00 0.00 0.00 97 1017.4
20260903111326 70 341 0.0 0.0 0.00 0.00 0.00 97 1017.4
20260903110854 70 341 0.0 0.0 0.00 0.00 0.00 97 1017.3
20260903110334 70 341 0.0 0.0 0.00 0.00 0.00 97 1017.3
20260903105834 70 341 0.0 0.0 0.00 0.00 0.00 97 1017.1
20260903105335 70 341 0.0 0.0 0.00 0.00 0.00 97 1017.3
20260903104821 70 341 0.0 0.0 0.00 0.00 0.00 97 1017.1
20260903104322 70 341 0.0 0.0 0.00 0.00 0.00 96 1017.1
20260903103822 70 341 0.0 0.0 0.00 0.00 0.00 97 1017.2
20260903103322 70 341 0.0 0.0 0.00 0.00 0.00 96 1017.2
20260903102825 70 341 0.0 0.0 0.00 0.00 0.00 97 1017.1
20260903102322 70 341 0.0 0.0 0.00 0.00 0.00 97 1017.1
20260903101824 70 341 0.0 0.0 0.00 0.00 0.00 97 1017.1
20260903101325 70 341 0.0 0.0 0.00 0.00 0.00 97 1017.0
20260903100825 70 341 0.0 0.0 0.00 0.00 0.00 97 1017.0
20260903100353 70 341 0.0 0.0 0.00 0.00 0.00 96 1017.0
20260903095831 70 341 0.0 0.0 0.00 0.00 0.00 97 1017.0
20260903095333 70 341 0.0 0.0 0.00 0.00 0.00 97 1016.8
20260903094835 70 341 0.0 0.0 0.00 0.00 0.00 97 1016.9
20260903094315 70 341 0.0 0.0 0.00 0.00 0.00 96 1016.9
20260903093817 70 341 0.0 0.0 0.00 0.00 0.00 96 1016.9
20260903093317 70 341 0.0 0.0 0.00 0.00 0.00 96 1016.9
20260903092838 69 341 0.0 0.0 0.00 0.00 0.00 96 1016.7
20260903092319 70 341 0.0 0.0 0.00 0.00 0.00 96 1016.7
20260903091821 69 341 0.0 0.0 0.00 0.00 0.00 96 1016.7
20260903091322 69 341 0.0 0.0 0.00 0.00 0.00 96 1016.7
20260903090822 70 341 0.0 0.0 0.00 0.00 0.00 96 1016.7
20260903090329 70 341 0.0 0.0 0.00 0.00 0.00 96 1016.8
20260903085831 70 341 0.0 0.0 0.00 0.00 0.00 96 1016.8
20260903085312 70 341 0.0 0.0 0.00 0.00 0.00 95 1016.8
20260903084814 70 341 0.0 0.0 0.00 0.00 0.00 95 1016.9
20260903084314 70 341 0.0 0.0 0.00 0.00 0.00 95 1016.8
20260903083814 71 341 0.0 0.0 0.00 0.00 0.00 95 1016.9
20260903083315 71 341 0.0 0.0 0.00 0.00 0.00 95 1016.8
20260903082817 71 341 0.0 0.0 0.00 0.00 0.00 95 1016.8
20260903082313 71 341 0.0 0.0 0.00 0.00 0.00 95 1016.9
20260903081814 71 341 0.0 0.0 0.00 0.00 0.00 95 1016.9
20260903081341 71 341 0.0 0.0 0.00 0.00 0.00 95 1016.8
20260903080821 72 341 0.0 0.0 0.00 0.00 0.00 95 1016.9
20260903080322 72 341 0.0 0.0 0.00 0.00 0.00 94 1016.7
20260903075824 72 341 0.0 0.0 0.00 0.00 0.00 94 1016.8
20260903075324 72 341 0.0 0.0 0.00 0.00 0.00 94 1016.8
20260903074824 72 341 0.0 0.0 0.00 0.00 0.00 94 1016.7
20260903074352 72 341 0.0 0.0 0.00 0.00 0.00 95 1016.7
20260903073831 72 341 0.0 0.0 0.00 0.00 0.00 95 1016.7
20260903073330 72 341 0.0 0.0 0.00 0.00 0.00 94 1016.6
20260903072827 72 341 0.0 0.0 0.00 0.00 0.00 94 1016.7
20260903072329 72 341 0.0 0.0 0.00 0.00 0.00 94 1016.7
20260903071828 72 341 0.0 0.0 0.00 0.00 0.00 94 1016.7
20260903071327 72 341 0.0 0.0 0.00 0.00 0.00 94 1016.6
20260903070828 72 341 0.0 0.0 0.00 0.00 0.00 94 1016.5
20260903070330 72 341 0.0 0.0 0.00 0.00 0.00 94 1016.5
20260903065857 72 341 0.0 0.0 0.00 0.00 0.00 93 1016.5
20260903065337 72 341 0.0 0.0 0.00 0.00 0.00 93 1016.5
20260903064816 72 341 0.0 0.0 0.00 0.00 0.00 93 1016.5
20260903064318 72 341 0.0 0.0 0.00 0.00 0.00 93 1016.4
20260903063842 72 341 0.0 0.0 0.00 0.00 0.00 92 1016.6
20260903063317 72 341 0.0 0.0 0.00 0.00 0.00 92 1016.8
20260903062818 73 341 0.0 0.0 0.00 0.00 0.00 92 1016.8
20260903062318 73 341 0.0 0.0 0.00 0.00 0.00 92 1016.8
20260903061819 73 341 0.0 0.0 0.00 0.00 0.00 92 1016.8
20260903061321 73 341 0.0 0.0 0.00 0.00 0.00 93 1016.9